Weather History for KTAZ - June, 2013

Change the Weather History Date:

Sunday, June 23, 2013

  Actual Average (KSPI) Record (KSPI)
Temperature  
Mean Temperature 72 °F 74 °F  
Max Temperature 80 °F 85 °F 99 °F (1934)
Min Temperature 64 °F 64 °F 45 °F (1972)
Degree Days  
Heating Degree Days 0 0  
Month to date heating degree days 11  
Since 1 June heating degree days 11  
Since 1 July heating degree days 5481  
Cooling Degree Days 7 10  
Month to date cooling degree days 168  
Year to date cooling degree days 272  
Since 1 June cooling degree days 168  
Growing Degree Days 22 (Base 50)    
Moisture  
Dew Point 66 °F    
Average Humidity 85    
Maximum Humidity 100    
Minimum Humidity 65    
Precipitation  
Precipitation 0.00 in 0.14 in 2.57 in (2014)
Month to date precipitation 3.50  
Year to date precipitation 17.51  
Snow  
Snow 0.00 in 0.00 in 0.00 in ()
Month to date snowfall 0.0  
Since 1 June snowfall 0.0  
Since 1 July snowfall 20.9  
Snow Depth -    
Sea Level Pressure  
Sea Level Pressure 30.03 in    
Wind  
Wind Speed 9 mph (SSE)    
Max Wind Speed 20 mph    
Max Gust Speed 24 mph    
Visibility 10 miles    
Events Rain , Thunderstorm    
T = Trace of Precipitation, MM = Missing Value Source: NWS Daily Summary

Daily Weather History Graph

Daily Weather History Graph

Search for Another Location

Airport or City:

Trip Planner

Search our weather history database for the weather conditions in past years. The results will help you decide how hot, cold, wet, or windy it might be!

Date:

Astronomy

Jun. 23, 2013 Rise Set
Actual Time 5:30 AM CDT 8:28 PM CDT
Civil Twilight 4:58 AM CDT 9:01 PM CDT
Nautical Twilight 4:16 AM CDT 9:42 PM CDT
Astronomical Twilight 3:29 AM CDT 10:29 PM CDT
Moon 8:41 PM CDT (6/23) 5:47 AM CDT (6/23)
Length of Visible Light 16h 02m
Length of Day
14h 57m
Full, 100% of the Moon is Illuminated
Jun 23
Full
Jun 29
Last Quarter
Jul 8
New
Jul 15
First Quarter
Jul 22
Full

Hourly Weather History & Observations

Time (CDT) Temp. Heat Index Dew Point Humidity Pressure Visibility Wind Dir Wind Speed Gust Speed Precip Events Conditions
12:15 AM 64.4 °F - 64.4 °F 100% 30.04 in 10.0 mi SE 8.1 mph - N/A   Clear
12:35 AM 64.4 °F - 64.4 °F 100% 30.04 in 10.0 mi SE 5.8 mph - N/A   Clear
12:55 AM 66.2 °F - 66.2 °F 100% 30.02 in 10.0 mi SE 5.8 mph - N/A   Clear
1:15 AM 66.2 °F - 66.2 °F 100% 30.02 in 10.0 mi South 3.5 mph - N/A   Clear
1:35 AM 66.2 °F - 64.4 °F 94% 30.02 in 7.0 mi SSE 5.8 mph - N/A   Clear
1:55 AM 66.2 °F - 64.4 °F 94% 30.02 in 10.0 mi SSE 5.8 mph - N/A   Clear
2:15 AM 66.2 °F - 64.4 °F 94% 30.02 in 10.0 mi ESE 8.1 mph - N/A   Clear
2:35 AM 66.2 °F - 66.2 °F 100% 30.03 in 10.0 mi SE 8.1 mph - N/A   Clear
2:55 AM 66.2 °F - 66.2 °F 100% 30.02 in 10.0 mi SE 8.1 mph - N/A   Clear
3:15 AM 66.2 °F - 64.4 °F 94% 30.02 in 10.0 mi SE 5.8 mph - N/A   Clear
3:35 AM 66.2 °F - 64.4 °F 94% 30.03 in 10.0 mi SE 6.9 mph - N/A   Clear
3:55 AM 66.2 °F - 64.4 °F 94% 30.03 in 10.0 mi SE 8.1 mph - N/A   Clear
4:15 AM 66.2 °F - 64.4 °F 94% 30.03 in 10.0 mi SSE 10.4 mph - N/A   Clear
4:35 AM 66.2 °F - 64.4 °F 94% 30.04 in 10.0 mi SSE 8.1 mph - N/A   Clear
4:55 AM 66.2 °F - 64.4 °F 94% 30.04 in 10.0 mi SSE 8.1 mph - N/A   Clear
5:15 AM 66.2 °F - 64.4 °F 94% 30.04 in 10.0 mi SSE 8.1 mph - N/A   Clear
5:35 AM 66.2 °F - 64.4 °F 94% 30.04 in 10.0 mi South 5.8 mph - N/A   Clear
5:55 AM 66.2 °F - 64.4 °F 94% 30.05 in 10.0 mi SSE 4.6 mph - N/A   Clear
6:15 AM 66.2 °F - 64.4 °F 94% 30.05 in 10.0 mi SSE 5.8 mph - N/A   Clear
6:35 AM 66.2 °F - 64.4 °F 94% 30.06 in 10.0 mi SSE 5.8 mph - N/A   Clear
6:55 AM 68.0 °F - 64.4 °F 88% 30.06 in 10.0 mi SSE 6.9 mph - N/A   Clear
7:15 AM 68.0 °F - 64.4 °F 88% 30.06 in 10.0 mi SSE 8.1 mph - N/A Thunderstorm Clear
7:35 AM 68.0 °F - 64.4 °F 88% 30.06 in 10.0 mi SSE 8.1 mph - N/A   Clear
7:55 AM 69.8 °F - 66.2 °F 88% 30.05 in 10.0 mi SSE 9.2 mph - N/A   Clear
8:15 AM 71.6 °F - 66.2 °F 83% 30.05 in 10.0 mi South 8.1 mph - N/A   Clear
8:35 AM 73.4 °F - 66.2 °F 78% 30.05 in 10.0 mi South 10.4 mph - N/A Thunderstorm Clear
8:55 AM 75.2 °F - 66.2 °F 73% 30.05 in 10.0 mi South 15.0 mph 20.7 mph N/A Thunderstorm Thunderstorm
9:15 AM 75.2 °F - 66.2 °F 73% 30.06 in 10.0 mi South 15.0 mph 23.0 mph N/A   Clear
9:35 AM 73.4 °F - 66.2 °F 78% 30.06 in 10.0 mi South 15.0 mph 18.4 mph N/A   Clear
9:55 AM 73.4 °F - 66.2 °F 78% 30.05 in 10.0 mi South 15.0 mph - N/A   Clear
10:15 AM 71.6 °F - 66.2 °F 83% 30.05 in 10.0 mi South 12.7 mph 18.4 mph N/A Thunderstorm Thunderstorm
10:35 AM 73.4 °F - 66.2 °F 78% 30.05 in 10.0 mi South 11.5 mph - N/A   Clear
10:55 AM 75.2 °F - 66.2 °F 73% 30.04 in 10.0 mi South 12.7 mph - N/A   Clear
11:15 AM 77.0 °F - 66.2 °F 69% 30.05 in 10.0 mi SSW 12.7 mph 20.7 mph N/A   Clear
11:35 AM 75.2 °F - 66.2 °F 73% 30.06 in 10.0 mi South 13.8 mph 21.9 mph N/A   Clear
11:55 AM 75.2 °F - 66.2 °F 73% 30.07 in 10.0 mi South 10.4 mph - N/A   Clear
12:15 PM 75.2 °F - 66.2 °F 73% 30.07 in 10.0 mi South 11.5 mph - N/A   Clear
12:35 PM 75.2 °F - 66.2 °F 73% 30.06 in 10.0 mi SSE 10.4 mph - N/A Thunderstorm Clear
12:55 PM 75.2 °F - 66.2 °F 73% 30.06 in 10.0 mi SSE 13.8 mph - N/A   Clear
1:15 PM 77.0 °F - 66.2 °F 69% 30.06 in 10.0 mi SSE 13.8 mph - N/A   Clear
1:35 PM 77.0 °F - 68.0 °F 74% 30.05 in 10.0 mi SSE 15.0 mph 20.7 mph N/A   Clear
1:55 PM 73.4 °F - 69.8 °F 88% 30.05 in 10.0 mi SSE 16.1 mph 23.0 mph N/A   Clear
2:15 PM 77.0 °F - 66.2 °F 69% 30.04 in 10.0 mi SSE 17.3 mph 24.2 mph N/A   Clear
2:35 PM 77.0 °F - 66.2 °F 69% 30.03 in 10.0 mi SSE 15.0 mph 23.0 mph N/A   Clear
2:55 PM 78.8 °F - 66.2 °F 65% 30.01 in 10.0 mi SSE 19.6 mph 24.2 mph N/A   Clear
3:15 PM 78.8 °F - 68.0 °F 69% 30.01 in 10.0 mi SSE 16.1 mph 24.2 mph N/A   Clear
3:35 PM 78.8 °F - 68.0 °F 69% 30.01 in 10.0 mi South 16.1 mph 20.7 mph N/A   Clear
3:55 PM 78.8 °F - 68.0 °F 69% 30.01 in 10.0 mi SSE 11.5 mph 17.3 mph N/A   Clear
4:15 PM 80.6 °F 83.9 °F 69.8 °F 70% 30.00 in 10.0 mi South 15.0 mph 20.7 mph N/A   Clear
4:35 PM 80.6 °F 83.9 °F 69.8 °F 70% 29.98 in 10.0 mi SSE 16.1 mph - N/A   Clear
4:55 PM 78.8 °F - 69.8 °F 74% 29.99 in 10.0 mi South 15.0 mph 21.9 mph N/A   Clear
5:15 PM 78.8 °F - 69.8 °F 74% 30.00 in 10.0 mi South 13.8 mph - N/A   Clear
5:35 PM 77.0 °F - 69.8 °F 78% 29.98 in 10.0 mi South 13.8 mph - N/A   Clear
5:55 PM 77.0 °F - 69.8 °F 78% 29.99 in 10.0 mi South 10.4 mph - N/A   Scattered Clouds
6:15 PM 71.6 °F - 64.4 °F 78% 30.01 in 10.0 mi West 16.1 mph 24.2 mph N/A   Scattered Clouds
6:35 PM 69.8 °F - 64.4 °F 83% 30.00 in 10.0 mi West 8.1 mph 12.7 mph N/A Thunderstorm Scattered Clouds
6:55 PM 69.8 °F - 64.4 °F 83% 29.99 in 10.0 mi Calm Calm - N/A   Clear
7:15 PM 68.0 °F - 66.2 °F 94% 29.99 in 10.0 mi South 6.9 mph - N/A   Clear
7:35 PM 68.0 °F - 66.2 °F 94% 30.00 in 10.0 mi South 8.1 mph - N/A Rain Rain
7:55 PM 66.2 °F - 66.2 °F 100% 30.00 in 10.0 mi South 13.8 mph - N/A Rain Light Rain
8:15 PM 66.2 °F - 64.4 °F 94% 30.00 in 10.0 mi South 11.5 mph - N/A Rain , Thunderstorm Light Thunderstorms and Rain
8:35 PM 66.2 °F - 64.4 °F 94% 29.99 in 10.0 mi SSW 13.8 mph - N/A Rain Light Rain
8:55 PM 66.2 °F - 64.4 °F 94% 29.98 in 10.0 mi South 15.0 mph 19.6 mph N/A Rain Light Rain
9:15 PM 66.2 °F - 64.4 °F 94% 29.98 in 10.0 mi South 15.0 mph - N/A Rain Light Rain
9:35 PM 66.2 °F - 64.4 °F 94% 29.97 in 10.0 mi SSW 16.1 mph - N/A   Light Drizzle
9:55 PM 66.2 °F - 64.4 °F 94% 30.01 in 10.0 mi NNW 13.8 mph 20.7 mph N/A   Light Drizzle
10:15 PM 66.2 °F - 64.4 °F 94% 30.03 in 10.0 mi North 5.8 mph - N/A   Clear
10:35 PM 66.2 °F - 64.4 °F 94% 30.02 in 10.0 mi Calm Calm - N/A   Clear
10:55 PM 66.2 °F - 64.4 °F 94% 30.02 in 10.0 mi Calm Calm - N/A   Clear
11:15 PM 66.2 °F - 64.4 °F 94% 30.02 in 10.0 mi Calm Calm - N/A   Clear
11:35 PM 66.2 °F - 64.4 °F 94% 30.03 in 10.0 mi SW 3.5 mph - N/A   Clear
11:55 PM 66.2 °F - 64.4 °F 94% 30.04 in 10.0 mi Calm Calm - N/A   Clear